Data supplied by UK-AIR on 24/3/2021
All Data GMT hour ending 
Status: R =Ratified P=Provisional,P*=As supplied
,,Inverness,,,,,,,,,,,,,,,,,,,,,,,
Date,time,"PM<sub>10</sub> particulate matter (Hourly measured)",status,unit,"Nitric oxide",status,unit,"Nitrogen dioxide",status,unit,"Nitrogen oxides as nitrogen dioxide",status,unit,"PM<sub>2.5</sub> particulate matter (Hourly measured)",status,unit
 
01-01-2020,01:00,,,,2.17633,R,ugm-3,4.05649,R,ugm-3,7.39347,R,ugm-3,,,
01-01-2020,02:00,,,,2.72041,R,ugm-3,5.60101,R,ugm-3,9.77225,R,ugm-3,,,
01-01-2020,03:00,,,,2.73087,R,ugm-3,5.45638,R,ugm-3,9.64366,R,ugm-3,,,
01-01-2020,04:00,,,,2.26003,R,ugm-3,5.45505,R,ugm-3,8.92039,R,ugm-3,,,
01-01-2020,05:00,,,,1.88336,R,ugm-3,5.79152,R,ugm-3,8.67930,R,ugm-3,,,
01-01-2020,06:00,,,,0.78473,R,ugm-3,3.52215,R,ugm-3,4.72540,R,ugm-3,,,
01-01-2020,07:00,,,,0.87890,R,ugm-3,3.52242,R,ugm-3,4.87005,R,ugm-3,,,
01-01-2020,08:00,,,,1.16141,R,ugm-3,3.08925,R,ugm-3,4.87005,R,ugm-3,,,
01-01-2020,09:00,,,,1.09863,R,ugm-3,3.28195,R,ugm-3,4.96649,R,ugm-3,,,
01-01-2020,10:00,,,,1.69503,R,ugm-3,4.24800,R,ugm-3,6.84700,R,ugm-3,,,
01-01-2020,11:00,,,,2.82504,R,ugm-3,6.46923,R,ugm-3,10.80090,R,ugm-3,,,
01-01-2020,12:00,,,,3.42144,R,ugm-3,4.01178,R,ugm-3,9.25792,R,ugm-3,,,
01-01-2020,13:00,,,,4.52007,R,ugm-3,6.71511,R,ugm-3,13.64578,R,ugm-3,,,
01-01-2020,14:00,,,,6.52898,R,ugm-3,8.16734,R,ugm-3,18.17831,R,ugm-3,,,
01-01-2020,15:00,,,,6.90566,R,ugm-3,6.77007,R,ugm-3,17.35859,R,ugm-3,,,
01-01-2020,16:00,,,,4.77118,R,ugm-3,5.75146,R,ugm-3,13.06716,R,ugm-3,,,
01-01-2020,17:00,,,,3.39005,R,ugm-3,5.41003,R,ugm-3,10.60803,R,ugm-3,,,
01-01-2020,18:00,,,,4.95952,R,ugm-3,5.55911,R,ugm-3,13.16360,R,ugm-3,,,
01-01-2020,19:00,,,,2.98199,R,ugm-3,5.74640,R,ugm-3,10.31872,R,ugm-3,,,
01-01-2020,20:00,,,,3.48422,R,ugm-3,5.07276,R,ugm-3,10.41516,R,ugm-3,,,
01-01-2020,21:00,,,,3.01338,R,ugm-3,2.90161,R,ugm-3,7.52206,R,ugm-3,,,
01-01-2020,22:00,,,,1.31835,R,ugm-3,2.46286,R,ugm-3,4.48430,R,ugm-3,,,
01-01-2020,23:00,,,,1.85197,R,ugm-3,1.16247,R,ugm-3,4.00212,R,ugm-3,,,
01-01-2020,24:00,,,,0.75334,R,ugm-3,1.78621,R,ugm-3,2.94132,R,ugm-3,,,
02-01-2020,01:00,,,,0.75343,R,ugm-3,1.80206,R,ugm-3,2.95730,R,ugm-3,,,
02-01-2020,02:00,,,,0.79529,R,ugm-3,1.93075,R,ugm-3,3.15017,R,ugm-3,,,
02-01-2020,03:00,,,,0.97318,R,ugm-3,2.07587,R,ugm-3,3.56805,R,ugm-3,,,
02-01-2020,04:00,,,,0.62786,R,ugm-3,2.17140,R,ugm-3,3.13410,R,ugm-3,,,
02-01-2020,05:00,,,,0.97318,R,ugm-3,1.83478,R,ugm-3,3.32697,R,ugm-3,,,
02-01-2020,06:00,,,,0.62786,R,ugm-3,2.50892,R,ugm-3,3.47162,R,ugm-3,,,
02-01-2020,07:00,,,,1.19293,R,ugm-3,2.41396,R,ugm-3,4.24309,R,ugm-3,,,
02-01-2020,08:00,,,,1.44407,R,ugm-3,3.33073,R,ugm-3,5.54494,R,ugm-3,,,
02-01-2020,09:00,,,,1.50686,R,ugm-3,4.00593,R,ugm-3,6.31641,R,ugm-3,,,
02-01-2020,10:00,,,,1.88357,R,ugm-3,4.00692,R,ugm-3,6.89502,R,ugm-3,,,
02-01-2020,11:00,,,,4.61475,R,ugm-3,5.07481,R,ugm-3,12.15066,R,ugm-3,,,
02-01-2020,12:00,,,,4.70892,R,ugm-3,6.71443,R,ugm-3,13.93468,R,ugm-3,,,
02-01-2020,13:00,,,,5.83907,R,ugm-3,6.28343,R,ugm-3,15.23654,R,ugm-3,,,
02-01-2020,14:00,,,,6.74946,R,ugm-3,4.88751,R,ugm-3,15.23654,R,ugm-3,,,
02-01-2020,15:00,,,,8.82139,R,ugm-3,7.78593,R,ugm-3,21.31187,R,ugm-3,,,
02-01-2020,16:00,,,,13.15359,R,ugm-3,17.77813,R,ugm-3,37.94670,R,ugm-3,,,
02-01-2020,17:00,,,,7.47149,R,ugm-3,10.28969,R,ugm-3,21.74582,R,ugm-3,,,
02-01-2020,18:00,,,,6.40414,R,ugm-3,6.42955,R,ugm-3,16.24909,R,ugm-3,,,
02-01-2020,19:00,,,,3.79853,R,ugm-3,4.49408,R,ugm-3,10.31842,R,ugm-3,,,
02-01-2020,20:00,,,,3.61018,R,ugm-3,6.37405,R,ugm-3,11.90957,R,ugm-3,,,
02-01-2020,21:00,,,,3.29625,R,ugm-3,5.79463,R,ugm-3,10.84880,R,ugm-3,,,
02-01-2020,22:00,,,,5.14842,R,ugm-3,9.36751,R,ugm-3,17.26165,R,ugm-3,,,
02-01-2020,23:00,,,,2.63700,R,ugm-3,7.81802,R,ugm-3,11.86136,R,ugm-3,,,
02-01-2020,24:00,,,,2.04053,R,ugm-3,2.31973,R,ugm-3,5.44851,R,ugm-3,,,
03-01-2020,01:00,,,,0.71165,R,ugm-3,1.48031,R,ugm-3,2.57149,R,ugm-3,,,
03-01-2020,02:00,,,,0.41862,R,ugm-3,1.28675,R,ugm-3,1.92862,R,ugm-3,,,
03-01-2020,03:00,,,,0.62793,R,ugm-3,0.96581,R,ugm-3,1.92862,R,ugm-3,,,
03-01-2020,04:00,,,,0.72212,R,ugm-3,1.25533,R,ugm-3,2.36256,R,ugm-3,,,
03-01-2020,05:00,,,,1.16166,R,ugm-3,1.78675,R,ugm-3,3.56795,R,ugm-3,,,
03-01-2020,06:00,,,,1.44423,R,ugm-3,3.71605,R,ugm-3,5.93050,R,ugm-3,,,
03-01-2020,07:00,,,,2.60589,R,ugm-3,4.44206,R,ugm-3,8.43771,R,ugm-3,,,
03-01-2020,08:00,,,,4.36409,R,ugm-3,8.93031,R,ugm-3,15.62181,R,ugm-3,,,
03-01-2020,09:00,,,,8.35142,R,ugm-3,11.97743,R,ugm-3,24.78275,R,ugm-3,,,
03-01-2020,10:00,,,,11.17709,R,ugm-3,11.06810,R,ugm-3,28.20605,R,ugm-3,,,
03-01-2020,11:00,,,,12.11897,R,ugm-3,14.10792,R,ugm-3,32.69009,R,ugm-3,,,
03-01-2020,12:00,,,,13.34343,R,ugm-3,15.26803,R,ugm-3,35.72767,R,ugm-3,,,
03-01-2020,13:00,,,,13.53181,R,ugm-3,13.14700,R,ugm-3,33.89548,R,ugm-3,,,
03-01-2020,14:00,,,,19.34013,R,ugm-3,19.76642,R,ugm-3,49.42086,R,ugm-3,,,
03-01-2020,15:00,,,,18.36684,R,ugm-3,18.70335,R,ugm-3,46.86544,R,ugm-3,,,
03-01-2020,16:00,,,,13.97136,R,ugm-3,14.11236,R,ugm-3,35.53481,R,ugm-3,,,
03-01-2020,17:00,,,,21.53787,R,ugm-3,22.18245,R,ugm-3,55.20672,R,ugm-3,,,
03-01-2020,18:00,,,,10.23520,R,ugm-3,12.12658,R,ugm-3,27.82033,R,ugm-3,,,
03-01-2020,19:00,,,,9.41889,R,ugm-3,11.49783,R,ugm-3,25.93993,R,ugm-3,,,
03-01-2020,20:00,,,,8.97934,R,ugm-3,13.71469,R,ugm-3,27.48282,R,ugm-3,,,
03-01-2020,21:00,,,,4.33269,R,ugm-3,6.76054,R,ugm-3,13.40390,R,ugm-3,,,
03-01-2020,22:00,,,,2.16635,R,ugm-3,4.82673,R,ugm-3,8.14842,R,ugm-3,,,
03-01-2020,23:00,,,,2.73148,R,ugm-3,3.76734,R,ugm-3,7.95555,R,ugm-3,,,
03-01-2020,24:00,,,,1.56982,R,ugm-3,3.08955,R,ugm-3,5.49656,R,ugm-3,,,
04-01-2020,01:00,,,,1.04666,R,ugm-3,1.93084,R,ugm-3,3.53570,R,ugm-3,,,
04-01-2020,02:00,,,,1.71652,R,ugm-3,2.31801,R,ugm-3,4.94998,R,ugm-3,,,
04-01-2020,03:00,,,,0.91059,R,ugm-3,1.25555,R,ugm-3,2.65177,R,ugm-3,,,
04-01-2020,04:00,,,,0.53380,R,ugm-3,1.64044,R,ugm-3,2.45892,R,ugm-3,,,
04-01-2020,05:00,,,,0.81639,R,ugm-3,2.07498,R,ugm-3,3.32677,R,ugm-3,,,
04-01-2020,06:00,,,,1.35019,R,ugm-3,6.12613,R,ugm-3,8.19639,R,ugm-3,,,
04-01-2020,07:00,,,,3.29698,R,ugm-3,12.25355,R,ugm-3,17.30885,R,ugm-3,,,
04-01-2020,08:00,,,,10.80153,R,ugm-3,22.97342,R,ugm-3,39.53553,R,ugm-3,,,
04-01-2020,09:00,,,,16.48489,R,ugm-3,26.55363,R,ugm-3,51.83011,R,ugm-3,,,
04-01-2020,10:00,,,,18.08628,R,ugm-3,24.77320,R,ugm-3,52.50511,R,ugm-3,,,
04-01-2020,11:00,,,,17.48968,R,ugm-3,18.40765,R,ugm-3,45.22478,R,ugm-3,,,
04-01-2020,12:00,,,,18.68287,R,ugm-3,19.22988,R,ugm-3,47.87656,R,ugm-3,,,
04-01-2020,13:00,,,,17.61528,R,ugm-3,19.85434,R,ugm-3,46.86406,R,ugm-3,,,
04-01-2020,14:00,,,,18.83987,R,ugm-3,22.26771,R,ugm-3,51.15511,R,ugm-3,,,
04-01-2020,15:00,,,,11.83772,R,ugm-3,18.49177,R,ugm-3,36.64268,R,ugm-3,,,
04-01-2020,16:00,,,,12.96811,R,ugm-3,18.54244,R,ugm-3,38.42660,R,ugm-3,,,
04-01-2020,17:00,,,,10.95853,R,ugm-3,15.11487,R,ugm-3,31.91770,R,ugm-3,,,
04-01-2020,18:00,,,,12.37152,R,ugm-3,14.87687,R,ugm-3,33.84627,R,ugm-3,,,
04-01-2020,19:00,,,,10.51893,R,ugm-3,15.30677,R,ugm-3,31.43556,R,ugm-3,,,
04-01-2020,20:00,,,,4.64717,R,ugm-3,9.17079,R,ugm-3,16.29635,R,ugm-3,,,
04-01-2020,21:00,,,,2.63758,R,ugm-3,3.95930,R,ugm-3,8.00353,R,ugm-3,,,
04-01-2020,22:00,,,,1.88399,R,ugm-3,3.08980,R,ugm-3,5.97854,R,ugm-3,,,
04-01-2020,23:00,,,,1.38159,R,ugm-3,2.07621,R,ugm-3,4.19462,R,ugm-3,,,
04-01-2020,24:00,,,,1.13039,R,ugm-3,2.99173,R,ugm-3,4.72498,R,ugm-3,,,
05-01-2020,01:00,,,,0.71181,R,ugm-3,1.47992,R,ugm-3,2.57134,R,ugm-3,,,
05-01-2020,02:00,,,,0.54432,R,ugm-3,1.28674,R,ugm-3,2.12136,R,ugm-3,,,
05-01-2020,03:00,,,,0.65947,R,ugm-3,1.54410,R,ugm-3,2.55527,R,ugm-3,,,
05-01-2020,04:00,,,,0.65947,R,ugm-3,1.15840,R,ugm-3,2.16957,R,ugm-3,,,
05-01-2020,05:00,,,,0.59666,R,ugm-3,1.30291,R,ugm-3,2.21778,R,ugm-3,,,
05-01-2020,06:00,,,,0.69087,R,ugm-3,1.15846,R,ugm-3,2.21778,R,ugm-3,,,
05-01-2020,07:00,,,,0.62807,R,ugm-3,1.73689,R,ugm-3,2.69991,R,ugm-3,,,
05-01-2020,08:00,,,,0.84789,R,ugm-3,1.64089,R,ugm-3,2.94097,R,ugm-3,,,
05-01-2020,09:00,,,,1.44455,R,ugm-3,1.97955,R,ugm-3,4.19450,R,ugm-3,,,
05-01-2020,10:00,,,,2.07262,R,ugm-3,2.51112,R,ugm-3,5.68909,R,ugm-3,,,
05-01-2020,11:00,,,,4.99312,R,ugm-3,4.15609,R,ugm-3,11.81210,R,ugm-3,,,
05-01-2020,12:00,,,,5.18154,R,ugm-3,3.52969,R,ugm-3,11.47461,R,ugm-3,,,
05-01-2020,13:00,,,,6.40627,R,ugm-3,8.16051,R,ugm-3,17.98331,R,ugm-3,,,
05-01-2020,14:00,,,,7.00293,R,ugm-3,9.36700,R,ugm-3,20.10467,R,ugm-3,,,
05-01-2020,15:00,,,,8.73011,R,ugm-3,7.34545,R,ugm-3,20.73143,R,ugm-3,,,
05-01-2020,16:00,,,,7.00293,R,ugm-3,9.55985,R,ugm-3,20.29752,R,ugm-3,,,
05-01-2020,17:00,,,,6.40627,R,ugm-3,8.06408,R,ugm-3,17.88689,R,ugm-3,,,
05-01-2020,18:00,,,,5.43277,R,ugm-3,8.15860,R,ugm-3,16.48872,R,ugm-3,,,
05-01-2020,19:00,,,,3.14033,R,ugm-3,4.53815,R,ugm-3,9.35325,R,ugm-3,,,
05-01-2020,20:00,,,,3.23454,R,ugm-3,4.49012,R,ugm-3,9.44968,R,ugm-3,,,
05-01-2020,21:00,,,,2.32384,R,ugm-3,3.33123,R,ugm-3,6.89441,R,ugm-3,,,
05-01-2020,22:00,,,,1.82139,R,ugm-3,3.37846,R,ugm-3,6.17122,R,ugm-3,,,
05-01-2020,23:00,,,,1.31894,R,ugm-3,1.88288,R,ugm-3,3.90522,R,ugm-3,,,
05-01-2020,24:00,,,,0.43965,R,ugm-3,1.25439,R,ugm-3,1.92851,R,ugm-3,,,
06-01-2020,01:00,,,,0.79564,R,ugm-3,1.28702,R,ugm-3,2.50698,R,ugm-3,,,
06-01-2020,02:00,,,,0.33501,R,ugm-3,1.41478,R,ugm-3,1.92845,R,ugm-3,,,
06-01-2020,03:00,,,,0.06281,R,ugm-3,1.59108,R,ugm-3,1.68739,R,ugm-3,,,
06-01-2020,04:00,,,,0.25125,R,ugm-3,1.68783,R,ugm-3,2.07308,R,ugm-3,,,
06-01-2020,05:00,,,,1.06783,R,ugm-3,2.12316,R,ugm-3,3.76047,R,ugm-3,,,
06-01-2020,06:00,,,,4.52257,R,ugm-3,10.46974,R,ugm-3,17.40425,R,ugm-3,,,
06-01-2020,07:00,,,,6.12432,R,ugm-3,9.79758,R,ugm-3,19.18806,R,ugm-3,,,
06-01-2020,08:00,,,,9.73609,R,ugm-3,13.41973,R,ugm-3,28.34819,R,ugm-3,,,
06-01-2020,09:00,,,,12.02878,R,ugm-3,11.83277,R,ugm-3,30.27664,R,ugm-3,,,
06-01-2020,10:00,,,,11.36924,R,ugm-3,14.09754,R,ugm-3,31.53014,R,ugm-3,,,
06-01-2020,11:00,,,,10.30141,R,ugm-3,10.91374,R,ugm-3,26.70901,R,ugm-3,,,
06-01-2020,12:00,,,,10.67829,R,ugm-3,12.69821,R,ugm-3,29.07136,R,ugm-3,,,
06-01-2020,13:00,,,,12.40567,R,ugm-3,13.76187,R,ugm-3,32.78363,R,ugm-3,,,
06-01-2020,14:00,,,,10.92955,R,ugm-3,16.84481,R,ugm-3,33.60322,R,ugm-3,,,
06-01-2020,15:00,,,,19.72344,R,ugm-3,18.59578,R,ugm-3,48.83796,R,ugm-3,,,
06-01-2020,16:00,,,,20.41438,R,ugm-3,20.28438,R,ugm-3,51.58600,R,ugm-3,,,
06-01-2020,17:00,,,,23.55506,R,ugm-3,25.78595,R,ugm-3,61.90320,R,ugm-3,,,
06-01-2020,18:00,,,,22.11035,R,ugm-3,26.41017,R,ugm-3,60.31223,R,ugm-3,,,
06-01-2020,19:00,,,,9.23358,R,ugm-3,9.75480,R,ugm-3,23.91276,R,ugm-3,,,
06-01-2020,20:00,,,,7.44340,R,ugm-3,9.55883,R,ugm-3,20.97188,R,ugm-3,,,
06-01-2020,21:00,,,,5.93588,R,ugm-3,7.77238,R,ugm-3,16.87392,R,ugm-3,,,
06-01-2020,22:00,,,,3.83162,R,ugm-3,5.06887,R,ugm-3,10.94395,R,ugm-3,,,
06-01-2020,23:00,,,,2.10425,R,ugm-3,3.13741,R,ugm-3,6.36388,R,ugm-3,,,
06-01-2020,24:00,,,,0.75376,R,ugm-3,2.21903,R,ugm-3,3.37479,R,ugm-3,,,
07-01-2020,01:00,,,,0.75385,R,ugm-3,1.41531,R,ugm-3,2.57119,R,ugm-3,,,
07-01-2020,02:00,,,,0.33504,R,ugm-3,1.09327,R,ugm-3,1.60699,R,ugm-3,,,
07-01-2020,03:00,,,,0.62821,R,ugm-3,1.78472,R,ugm-3,2.74796,R,ugm-3,,,
07-01-2020,04:00,,,,0.43974,R,ugm-3,1.06129,R,ugm-3,1.73555,R,ugm-3,,,
07-01-2020,05:00,,,,0.56538,R,ugm-3,1.01327,R,ugm-3,1.88018,R,ugm-3,,,
07-01-2020,06:00,,,,2.04166,R,ugm-3,2.26899,R,ugm-3,5.39950,R,ugm-3,,,
07-01-2020,07:00,,,,3.92628,R,ugm-3,3.47712,R,ugm-3,9.49733,R,ugm-3,,,
07-01-2020,08:00,,,,7.19294,R,ugm-3,5.94082,R,ugm-3,16.96985,R,ugm-3,,,
07-01-2020,09:00,,,,18.31216,R,ugm-3,18.44420,R,ugm-3,46.52245,R,ugm-3,,,
07-01-2020,10:00,,,,9.61153,R,ugm-3,9.70489,R,ugm-3,24.44237,R,ugm-3,,,
07-01-2020,11:00,,,,9.17179,R,ugm-3,9.65601,R,ugm-3,23.71922,R,ugm-3,,,
07-01-2020,12:00,,,,7.53845,R,ugm-3,6.27882,R,ugm-3,17.83762,R,ugm-3,,,
07-01-2020,13:00,,,,6.84743,R,ugm-3,8.73646,R,ugm-3,19.23571,R,ugm-3,,,
07-01-2020,14:00,,,,9.86281,R,ugm-3,9.89812,R,ugm-3,25.02088,R,ugm-3,,,
07-01-2020,15:00,,,,7.91538,R,ugm-3,7.77390,R,ugm-3,19.91065,R,ugm-3,,,
07-01-2020,16:00,,,,13.56922,R,ugm-3,8.84318,R,ugm-3,29.64902,R,ugm-3,,,
07-01-2020,17:00,,,,16.83588,R,ugm-3,14.63336,R,ugm-3,40.44802,R,ugm-3,,,
07-01-2020,18:00,,,,12.21858,R,ugm-3,18.24202,R,ugm-3,36.97691,R,ugm-3,,,
07-01-2020,19:00,,,,9.89422,R,ugm-3,12.50149,R,ugm-3,27.67242,R,ugm-3,,,
07-01-2020,20:00,,,,5.18269,R,ugm-3,6.66089,R,ugm-3,14.60757,R,ugm-3,,,
07-01-2020,21:00,,,,3.58077,R,ugm-3,3.47659,R,ugm-3,8.96702,R,ugm-3,,,
07-01-2020,22:00,,,,3.29807,R,ugm-3,2.60838,R,ugm-3,7.66536,R,ugm-3,,,
07-01-2020,23:00,,,,1.47628,R,ugm-3,1.97886,R,ugm-3,4.24246,R,ugm-3,,,
07-01-2020,24:00,,,,0.81667,R,ugm-3,0.86903,R,ugm-3,2.12123,R,ugm-3,,,
08-01-2020,01:00,,,,0.54450,R,ugm-3,1.09344,R,ugm-3,1.92834,R,ugm-3,,,
08-01-2020,02:00,,,,0.20942,R,ugm-3,0.77161,R,ugm-3,1.09272,R,ugm-3,,,
08-01-2020,03:00,,,,0.34555,R,ugm-3,1.01283,R,ugm-3,1.54267,R,ugm-3,,,
08-01-2020,04:00,,,,0.37696,R,ugm-3,1.25391,R,ugm-3,1.83192,R,ugm-3,,,
08-01-2020,05:00,,,,0.53403,R,ugm-3,1.54337,R,ugm-3,2.36221,R,ugm-3,,,
08-01-2020,06:00,,,,1.60210,R,ugm-3,2.02686,R,ugm-3,4.48338,R,ugm-3,,,
08-01-2020,07:00,,,,6.40840,R,ugm-3,5.69703,R,ugm-3,15.52310,R,ugm-3,,,
08-01-2020,08:00,,,,15.73827,R,ugm-3,17.61678,R,ugm-3,41.74845,R,ugm-3,,,
08-01-2020,09:00,,,,30.87967,R,ugm-3,39.95720,R,ugm-3,87.30537,R,ugm-3,,,
08-01-2020,10:00,,,,11.93721,R,ugm-3,15.34598,R,ugm-3,33.64945,R,ugm-3,,,
08-01-2020,11:00,,,,14.79585,R,ugm-3,21.32758,R,ugm-3,44.01425,R,ugm-3,,,
08-01-2020,12:00,,,,17.46602,R,ugm-3,14.09985,R,ugm-3,40.88070,R,ugm-3,,,
08-01-2020,13:00,,,,10.49218,R,ugm-3,11.10174,R,ugm-3,27.18952,R,ugm-3,,,
08-01-2020,14:00,,,,9.45553,R,ugm-3,11.58246,R,ugm-3,26.08073,R,ugm-3,,,
08-01-2020,15:00,,,,15.17282,R,ugm-3,12.55416,R,ugm-3,35.81882,R,ugm-3,,,
08-01-2020,16:00,,,,16.99481,R,ugm-3,17.32919,R,ugm-3,43.38754,R,ugm-3,,,
08-01-2020,17:00,,,,16.90057,R,ugm-3,13.23135,R,ugm-3,39.14520,R,ugm-3,,,
08-01-2020,18:00,,,,22.08383,R,ugm-3,22.83164,R,ugm-3,56.69305,R,ugm-3,,,
08-01-2020,19:00,,,,9.80108,R,ugm-3,12.93275,R,ugm-3,27.96086,R,ugm-3,,,
08-01-2020,20:00,,,,7.06808,R,ugm-3,13.89332,R,ugm-3,24.73090,R,ugm-3,,,
08-01-2020,21:00,,,,11.27752,R,ugm-3,17.90016,R,ugm-3,35.19211,R,ugm-3,,,
08-01-2020,22:00,,,,3.67540,R,ugm-3,9.35726,R,ugm-3,14.99281,R,ugm-3,,,
08-01-2020,23:00,,,,4.11520,R,ugm-3,5.54938,R,ugm-3,11.85926,R,ugm-3,,,
08-01-2020,24:00,,,,2.51310,R,ugm-3,5.30623,R,ugm-3,9.15959,R,ugm-3,,,
09-01-2020,01:00,,,,1.50802,R,ugm-3,5.14374,R,ugm-3,7.45601,R,ugm-3,,,
09-01-2020,02:00,,,,1.29858,R,ugm-3,6.17192,R,ugm-3,8.16304,R,ugm-3,,,
09-01-2020,03:00,,,,1.85361,R,ugm-3,8.77571,R,ugm-3,11.61788,R,ugm-3,,,
09-01-2020,04:00,,,,3.61298,R,ugm-3,14.27324,R,ugm-3,19.81306,R,ugm-3,,,
09-01-2020,05:00,,,,11.71861,R,ugm-3,14.71603,R,ugm-3,32.68432,R,ugm-3,,,
09-01-2020,06:00,,,,13.66648,R,ugm-3,23.39543,R,ugm-3,44.35040,R,ugm-3,,,
09-01-2020,07:00,,,,59.31564,R,ugm-3,46.39223,R,ugm-3,137.34161,R,ugm-3,,,
09-01-2020,08:00,,,,52.18394,R,ugm-3,49.56603,R,ugm-3,129.58029,R,ugm-3,,,
09-01-2020,09:00,,,,169.52712,R,ugm-3,77.17327,R,ugm-3,337.11123,R,ugm-3,,,
09-01-2020,10:00,,,,121.86726,R,ugm-3,54.84915,R,ugm-3,241.70967,R,ugm-3,,,
09-01-2020,11:00,,,,113.35320,R,ugm-3,50.74218,R,ugm-3,224.54799,R,ugm-3,,,
09-01-2020,12:00,,,,104.43072,R,ugm-3,53.86580,R,ugm-3,213.99067,R,ugm-3,,,
09-01-2020,13:00,,,,43.04154,R,ugm-3,34.46718,R,ugm-3,100.46329,R,ugm-3,,,
09-01-2020,14:00,,,,11.15310,R,ugm-3,23.44087,R,ugm-3,40.54205,R,ugm-3,,,
09-01-2020,15:00,,,,37.66920,R,ugm-3,36.38954,R,ugm-3,94.14818,R,ugm-3,,,
09-01-2020,16:00,,,,30.50609,R,ugm-3,40.91311,R,ugm-3,87.68845,R,ugm-3,,,
09-01-2020,17:00,,,,94.78564,R,ugm-3,56.31373,R,ugm-3,201.64969,R,ugm-3,,,
09-01-2020,18:00,,,,132.23493,R,ugm-3,62.95934,R,ugm-3,265.71673,R,ugm-3,,,
09-01-2020,19:00,,,,68.80363,R,ugm-3,53.19986,R,ugm-3,158.69729,R,ugm-3,,,
09-01-2020,20:00,,,,76.02958,R,ugm-3,46.16961,R,ugm-3,162.74668,R,ugm-3,,,
09-01-2020,21:00,,,,45.36641,R,ugm-3,40.01354,R,ugm-3,109.57441,R,ugm-3,,,
09-01-2020,22:00,,,,11.75003,R,ugm-3,20.35628,R,ugm-3,38.37274,R,ugm-3,,,
09-01-2020,23:00,,,,14.01206,R,ugm-3,24.84202,R,ugm-3,46.32688,R,ugm-3,,,
09-01-2020,24:00,,,,7.85430,R,ugm-3,19.96633,R,ugm-3,32.00942,R,ugm-3,,,
10-01-2020,01:00,,,,2.22039,R,ugm-3,6.62220,R,ugm-3,10.02675,R,ugm-3,,,
10-01-2020,02:00,,,,1.17304,R,ugm-3,3.60039,R,ugm-3,5.39902,R,ugm-3,,,
10-01-2020,03:00,,,,0.94262,R,ugm-3,3.03778,R,ugm-3,4.48311,R,ugm-3,,,
10-01-2020,04:00,,,,2.38797,R,ugm-3,5.06370,R,ugm-3,8.72520,R,ugm-3,,,
10-01-2020,05:00,,,,1.69672,R,ugm-3,4.43641,R,ugm-3,7.03801,R,ugm-3,,,
10-01-2020,06:00,,,,3.42485,R,ugm-3,5.59488,R,ugm-3,10.84625,R,ugm-3,,,
10-01-2020,07:00,,,,6.78686,R,ugm-3,9.35789,R,ugm-3,19.76427,R,ugm-3,,,
10-01-2020,08:00,,,,19.98354,R,ugm-3,18.67326,R,ugm-3,49.31426,R,ugm-3,,,
10-01-2020,09:00,,,,42.92063,R,ugm-3,39.66300,R,ugm-3,105.47371,R,ugm-3,,,
10-01-2020,10:00,,,,25.70210,R,ugm-3,25.76454,R,ugm-3,65.17388,R,ugm-3,,,
10-01-2020,11:00,,,,23.72260,R,ugm-3,16.60373,R,ugm-3,52.97788,R,ugm-3,,,
10-01-2020,12:00,,,,27.61876,R,ugm-3,31.02064,R,ugm-3,73.36882,R,ugm-3,,,
10-01-2020,13:00,,,,46.31406,R,ugm-3,45.49888,R,ugm-3,116.51278,R,ugm-3,,,
10-01-2020,14:00,,,,38.05042,R,ugm-3,38.88739,R,ugm-3,97.23056,R,ugm-3,,,
10-01-2020,15:00,17.450,R,ugm-3 (FIDAS),57.97112,R,ugm-3,59.77805,R,ugm-3,148.66587,R,ugm-3,12.594,R,ugm-3 (Ref.eq)
10-01-2020,16:00,6.975,R,ugm-3 (FIDAS),36.44797,R,ugm-3,45.53834,R,ugm-3,101.42444,R,ugm-3,4.269,R,ugm-3 (Ref.eq)
10-01-2020,17:00,6.325,R,ugm-3 (FIDAS),15.89886,R,ugm-3,17.94655,R,ugm-3,42.32446,R,ugm-3,4.009,R,ugm-3 (Ref.eq)
10-01-2020,18:00,5.100,R,ugm-3 (FIDAS),15.77317,R,ugm-3,14.95770,R,ugm-3,39.14290,R,ugm-3,3.467,R,ugm-3 (Ref.eq)
10-01-2020,19:00,3.750,R,ugm-3 (FIDAS),11.78275,R,ugm-3,18.03932,R,ugm-3,36.10595,R,ugm-3,2.335,R,ugm-3 (Ref.eq)
10-01-2020,20:00,2.450,R,ugm-3 (FIDAS),6.18987,R,ugm-3,9.93583,R,ugm-3,19.42683,R,ugm-3,1.486,R,ugm-3 (Ref.eq)
10-01-2020,21:00,1.725,R,ugm-3 (FIDAS),6.03277,R,ugm-3,9.40543,R,ugm-3,18.65554,R,ugm-3,1.274,R,ugm-3 (Ref.eq)
10-01-2020,22:00,1.900,R,ugm-3 (FIDAS),3.51912,R,ugm-3,6.70369,R,ugm-3,12.09959,R,ugm-3,1.179,R,ugm-3 (Ref.eq)
10-01-2020,23:00,1.250,R,ugm-3 (FIDAS),1.60245,R,ugm-3,3.03837,R,ugm-3,5.49543,R,ugm-3,0.967,R,ugm-3 (Ref.eq)
10-01-2020,24:00,0.950,R,ugm-3 (FIDAS),0.94262,R,ugm-3,2.50752,R,ugm-3,3.95285,R,ugm-3,0.660,R,ugm-3 (Ref.eq)
11-01-2020,01:00,1.275,R,ugm-3 (FIDAS),0.96367,R,ugm-3,1.80027,R,ugm-3,3.27788,R,ugm-3,0.920,R,ugm-3 (Ref.eq)
11-01-2020,02:00,0.725,R,ugm-3 (FIDAS),0.50279,R,ugm-3,1.41432,R,ugm-3,2.18525,R,ugm-3,0.590,R,ugm-3 (Ref.eq)
11-01-2020,03:00,0.625,R,ugm-3 (FIDAS),0.69133,R,ugm-3,0.91634,R,ugm-3,1.97637,R,ugm-3,0.448,R,ugm-3 (Ref.eq)
11-01-2020,04:00,0.825,R,ugm-3 (FIDAS),0.59706,R,ugm-3,1.25371,R,ugm-3,2.16918,R,ugm-3,0.448,R,ugm-3 (Ref.eq)
11-01-2020,05:00,0.825,R,ugm-3 (FIDAS),0.50279,R,ugm-3,1.01263,R,ugm-3,1.78355,R,ugm-3,0.354,R,ugm-3 (Ref.eq)
11-01-2020,06:00,0.800,R,ugm-3 (FIDAS),0.84845,R,ugm-3,1.54310,R,ugm-3,2.84404,R,ugm-3,0.330,R,ugm-3 (Ref.eq)
11-01-2020,07:00,0.575,R,ugm-3 (FIDAS),2.13684,R,ugm-3,3.37572,R,ugm-3,6.65217,R,ugm-3,0.259,R,ugm-3 (Ref.eq)
11-01-2020,08:00,0.750,R,ugm-3 (FIDAS),2.79675,R,ugm-3,7.03968,R,ugm-3,11.32797,R,ugm-3,0.307,R,ugm-3 (Ref.eq)
11-01-2020,09:00,0.700,R,ugm-3 (FIDAS),4.30511,R,ugm-3,5.73918,R,ugm-3,12.34025,R,ugm-3,0.377,R,ugm-3 (Ref.eq)
11-01-2020,10:00,0.975,R,ugm-3 (FIDAS),6.06486,R,ugm-3,6.80085,R,ugm-3,16.10018,R,ugm-3,0.613,R,ugm-3 (Ref.eq)
11-01-2020,11:00,1.200,R,ugm-3 (FIDAS),7.10186,R,ugm-3,10.51327,R,ugm-3,21.40263,R,ugm-3,0.849,R,ugm-3 (Ref.eq)
11-01-2020,12:00,2.125,R,ugm-3 (FIDAS),13.10387,R,ugm-3,16.06077,R,ugm-3,36.15309,R,ugm-3,1.439,R,ugm-3 (Ref.eq)
11-01-2020,13:00,4.525,R,ugm-3 (FIDAS),30.38715,R,ugm-3,38.39088,R,ugm-3,84.98385,R,ugm-3,3.609,R,ugm-3 (Ref.eq)
11-01-2020,14:00,4.550,R,ugm-3 (FIDAS),36.26346,R,ugm-3,36.85229,R,ugm-3,92.45549,R,ugm-3,3.585,R,ugm-3 (Ref.eq)
11-01-2020,15:00,3.375,R,ugm-3 (FIDAS),26.45913,R,ugm-3,30.53097,R,ugm-3,71.10107,R,ugm-3,2.217,R,ugm-3 (Ref.eq)
11-01-2020,16:00,3.850,R,ugm-3 (FIDAS),18.44597,R,ugm-3,24.98212,R,ugm-3,53.26555,R,ugm-3,2.618,R,ugm-3 (Ref.eq)
11-01-2020,17:00,6.875,R,ugm-3 (FIDAS),22.84535,R,ugm-3,26.76862,R,ugm-3,61.79767,R,ugm-3,5.566,R,ugm-3 (Ref.eq)
11-01-2020,18:00,8.050,R,ugm-3 (FIDAS),15.02074,R,ugm-3,17.89381,R,ugm-3,40.92529,R,ugm-3,5.991,R,ugm-3 (Ref.eq)
11-01-2020,19:00,7.225,R,ugm-3 (FIDAS),8.13885,R,ugm-3,12.15290,R,ugm-3,24.63230,R,ugm-3,4.953,R,ugm-3 (Ref.eq)
11-01-2020,20:00,5.350,R,ugm-3 (FIDAS),6.85046,R,ugm-3,11.04334,R,ugm-3,21.54724,R,ugm-3,3.986,R,ugm-3 (Ref.eq)
11-01-2020,21:00,4.700,R,ugm-3 (FIDAS),7.44752,R,ugm-3,13.55036,R,ugm-3,24.96973,R,ugm-3,2.972,R,ugm-3 (Ref.eq)
11-01-2020,22:00,5.000,R,ugm-3 (FIDAS),5.12214,R,ugm-3,8.39096,R,ugm-3,16.24479,R,ugm-3,3.467,R,ugm-3 (Ref.eq)
11-01-2020,23:00,4.500,R,ugm-3 (FIDAS),2.51393,R,ugm-3,4.62928,R,ugm-3,8.48393,R,ugm-3,3.019,R,ugm-3 (Ref.eq)
11-01-2020,24:00,6.300,R,ugm-3 (FIDAS),3.20526,R,ugm-3,8.00403,R,ugm-3,12.91870,R,ugm-3,4.387,R,ugm-3 (Ref.eq)
12-01-2020,01:00,10.400,R,ugm-3 (FIDAS),3.56180,R,ugm-3,9.96352,R,ugm-3,15.42486,R,ugm-3,6.934,R,ugm-3 (Ref.eq)
12-01-2020,02:00,6.950,R,ugm-3 (FIDAS),1.80185,R,ugm-3,3.85704,R,ugm-3,6.61984,R,ugm-3,3.962,R,ugm-3 (Ref.eq)
12-01-2020,03:00,6.225,R,ugm-3 (FIDAS),1.13140,R,ugm-3,3.23010,R,ugm-3,4.96488,R,ugm-3,3.491,R,ugm-3 (Ref.eq)
12-01-2020,04:00,7.075,R,ugm-3 (FIDAS),0.75426,R,ugm-3,2.07306,R,ugm-3,3.22958,R,ugm-3,3.774,R,ugm-3 (Ref.eq)
12-01-2020,05:00,7.175,R,ugm-3 (FIDAS),1.57138,R,ugm-3,6.12246,R,ugm-3,8.53188,R,ugm-3,3.797,R,ugm-3 (Ref.eq)
12-01-2020,06:00,7.725,R,ugm-3 (FIDAS),0.84855,R,ugm-3,2.16951,R,ugm-3,3.47060,R,ugm-3,4.033,R,ugm-3 (Ref.eq)
12-01-2020,07:00,8.100,R,ugm-3 (FIDAS),1.38282,R,ugm-3,2.55537,R,ugm-3,4.67566,R,ugm-3,3.962,R,ugm-3 (Ref.eq)
12-01-2020,08:00,3.050,R,ugm-3 (FIDAS),2.79706,R,ugm-3,4.72514,R,ugm-3,9.01390,R,ugm-3,1.934,R,ugm-3 (Ref.eq)
12-01-2020,09:00,3.050,R,ugm-3 (FIDAS),6.15981,R,ugm-3,13.25855,R,ugm-3,22.70347,R,ugm-3,1.557,R,ugm-3 (Ref.eq)
12-01-2020,10:00,1.500,R,ugm-3 (FIDAS),20.23939,R,ugm-3,29.60569,R,ugm-3,60.63899,R,ugm-3,0.755,R,ugm-3 (Ref.eq)
12-01-2020,11:00,2.125,R,ugm-3 (FIDAS),8.57974,R,ugm-3,9.49985,R,ugm-3,22.65527,R,ugm-3,1.698,R,ugm-3 (Ref.eq)
12-01-2020,12:00,4.600,R,ugm-3 (FIDAS),9.64828,R,ugm-3,14.56162,R,ugm-3,29.35544,R,ugm-3,2.925,R,ugm-3 (Ref.eq)
12-01-2020,13:00,4.875,R,ugm-3 (FIDAS),14.58242,R,ugm-3,12.34655,R,ugm-3,34.70594,R,ugm-3,3.679,R,ugm-3 (Ref.eq)
12-01-2020,14:00,4.775,R,ugm-3 (FIDAS),14.51956,R,ugm-3,17.31140,R,ugm-3,39.57441,R,ugm-3,3.514,R,ugm-3 (Ref.eq)
12-01-2020,15:00,8.100,R,ugm-3 (FIDAS),14.17386,R,ugm-3,16.44359,R,ugm-3,38.17653,R,ugm-3,5.094,R,ugm-3 (Ref.eq)
12-01-2020,16:00,6.525,R,ugm-3 (FIDAS),13.23103,R,ugm-3,9.88759,R,ugm-3,30.17489,R,ugm-3,4.505,R,ugm-3 (Ref.eq)
12-01-2020,17:00,6.375,R,ugm-3 (FIDAS),13.26246,R,ugm-3,19.04612,R,ugm-3,39.38160,R,ugm-3,4.575,R,ugm-3 (Ref.eq)
12-01-2020,18:00,3.525,R,ugm-3 (FIDAS),10.46540,R,ugm-3,14.75480,R,ugm-3,30.80152,R,ugm-3,2.476,R,ugm-3 (Ref.eq)
12-01-2020,19:00,6.225,R,ugm-3 (FIDAS),8.20261,R,ugm-3,13.64511,R,ugm-3,26.22227,R,ugm-3,4.670,R,ugm-3 (Ref.eq)
12-01-2020,20:00,4.150,R,ugm-3 (FIDAS),7.66834,R,ugm-3,11.37934,R,ugm-3,23.13729,R,ugm-3,2.807,R,ugm-3 (Ref.eq)
12-01-2020,21:00,4.750,R,ugm-3 (FIDAS),3.64561,R,ugm-3,7.28027,R,ugm-3,12.87012,R,ugm-3,3.208,R,ugm-3 (Ref.eq)
12-01-2020,22:00,5.325,R,ugm-3 (FIDAS),3.07991,R,ugm-3,5.78573,R,ugm-3,10.50819,R,ugm-3,3.514,R,ugm-3 (Ref.eq)
12-01-2020,23:00,6.975,R,ugm-3 (FIDAS),1.25711,R,ugm-3,2.89274,R,ugm-3,4.82027,R,ugm-3,4.222,R,ugm-3 (Ref.eq)
12-01-2020,24:00,5.850,R,ugm-3 (FIDAS),0.75426,R,ugm-3,1.63924,R,ugm-3,2.79576,R,ugm-3,3.491,R,ugm-3 (Ref.eq)
13-01-2020,01:00,4.125,R,ugm-3 (FIDAS),0.50290,R,ugm-3,1.73537,R,ugm-3,2.50647,R,ugm-3,2.618,R,ugm-3 (Ref.eq)
13-01-2020,02:00,4.700,R,ugm-3 (FIDAS),0.16763,R,ugm-3,1.47821,R,ugm-3,1.73525,R,ugm-3,2.689,R,ugm-3 (Ref.eq)
13-01-2020,03:00,4.400,R,ugm-3 (FIDAS),0.50290,R,ugm-3,1.01235,R,ugm-3,1.78345,R,ugm-3,2.712,R,ugm-3 (Ref.eq)
13-01-2020,04:00,6.575,R,ugm-3 (FIDAS),0.88007,R,ugm-3,1.39805,R,ugm-3,2.74747,R,ugm-3,3.278,R,ugm-3 (Ref.eq)